View from above orbital plane
|
View from above satellite
|
Ground track
|
The orbit data is extracted from the following two-line orbital elements,
1 42776U 17036M 21023.58935888 .00001016 00000-0 46684-4 0 9995
2 42776 97.2709 75.1572 0012507 331.1828 28.8717 15.22520856199176
Epoch (UTC): | 23 January 2021 14:08:40 |
Eccentricity: | 0.0012507 |
inclination: | 97.2709° |
perigee height: | 489 km |
apogee height: | 507 km |
right ascension of ascending node: | 75.1572° |
argument of perigee: | 331.1828° |
revolutions per day: | 15.22520856 |
mean anomaly at epoch: | 28.8717° |
orbit number at epoch: | 19917 |
The dashed part of the orbit path shows where the satellite is in the earth's shadow,
|
|